Location: B�retswil
(47.3376°N, 8.8534°E)
Time: 20:26:46
(UTC+00:00)

Meteor 1-20 Rocket - Pass Details

Date: 03 March 2021
Orbit: 820 x 891 km, 81.2° (Epoch: 14 April)

Event Time Altitude Azimuth Distance (km) Brightness Sun altitude
Rises 18:07:22 0° 195° (SSW) 3,339 7.5 -10.0°
Reaches altitude 10° 18:09:45 10° 197° (SSW) 2,410 6.8 -10.4°
Maximum altitude 18:15:11 74° 282° (WNW) 858 4.4 -11.4°
Drops below altitude 10° 18:20:43 10° 8° (N) 2,445 6.6 -12.3°
Sets 18:23:09 0° 11° (N) 3,391 7.3 -12.7°
